sat.trackr.live / text

‹ back to catalog

IRIDIUM 164

NORAD 43577 · 2018-061J

PAYLOAD ACTIVE UNKNOWN

§ Identity

Operator
Country
US
Launch date
2018-07-25
Launch site
AFWTR
Launch vehicle
Mass (kg)
RCS (m²)

Purposes: comms

External: N2YO · Heavens-Above · Gunter

§ Orbital elements

Epoch: 2026-09-19T20:15:26.294112Z

Period
100.40 min
Inclination
86.4011°
Eccentricity
0.0002033
Mean motion
14.34218554 rev/d
Perigee alt
776.2 km
Apogee alt
779.1 km
Semi-major
7,155.8 km
B*
2.8626e-5
RAAN
17.1838°
Arg perigee
95.4727°
Mean anomaly
264.6701°
Rev number
42,698

§ Raw data

IRIDIUM 1641 43577U 18061J   26262.84405433  .00000100  00000+0  28626-4 0  99992 43577  86.4011  17.1838 0002033  95.4727 264.6701 14.34218554426980

JSON: /api/v1/satellites/43577 · /tle

For live sub-satellite position, see the globe view (requires WebGL).

§ Visibility from observer

Set your observer location to see the next 7 days of passes ≥ 10°. The values pass through the URL so the page stays shareable.

No JS? Fill the form by hand. The geolocation button needs JavaScript.